Find Starlink 5269

NORAD ID: 54161 Int'l Des: 2022-141 Owner: SPXS Country: US Constellation: starlink operational
LEOCIRCULAR

Live Position

Loading 3D Globe...

About Starlink 5269

Description loading...

Upcoming Passes

Passes for default location (London). Set your location on the main map for personalized predictions.

Altitude History

Loading altitude history...

Two-Line Element Set

1 54161U 22141E 26122.19761578 -.00000265 00000-0 14097-5 0 9994
2 54161 53.2167 134.0188 0001276 80.8902 279.2235 15.08833612193797
Epoch: May 2, 2026 • Age: 9 hours

Current Status

Altitude 559.2 km
Velocity 7.58 km/s
Sub-Earth Point -53.30°S, 22.53°W
Launch Date Oct 28, 2022
Age 3.5 years
Type internet

Technical Details

Classification Payload
Mass 305.00 kg
Dry Mass 290.00 kg
Total Mass 305.00 kg
Length 0.20 m
Diameter 2.80 m
Span 9.00 m
Shape Box + pan
Manufacturer SPXS
Bus Type Starlink
Phase Status In Orbit
Owner/State SPXS/US

Most Searched